Lapse_Rate
4.5 4.6 4.8 5.2 5.0 5.4 5.5 5.9 6.0 5.9 6.2 6.3 6.3 6.0 5.8 5.7 6.0 5.6 5.7 5.5 5.4 5.8 6.0 5.8 5.8 5.5 5.4 5.5 5.3 5.2 5.2 5.5 5.4 5.6 5.4 5.5 5.8 5.8
4.7 4.8 5.2 5.2 5.2 5.5 5.7 5.8 5.9 5.6 6.1 6.5 6.5 6.4 6.0 6.0 5.9 5.5 5.8 5.8 5.8 6.0 6.1 6.1 6.1 6.0 5.8 5.7 5.8 5.8 5.8 5.5 5.6 5.8 5.6 5.5 5.5 5.6
4.9 5.0 5.2 5.3 5.5 5.6 5.7 5.9 5.9 5.7 5.7 6.7 6.6 6.4 6.1 6.1 6.0 5.9 6.1 6.0 6.0 6.0 6.0 6.2 5.7 5.9 5.5 5.6 5.6 5.4 5.6 5.6 5.6 5.5 5.6 5.4 5.6 5.6
4.9 5.0 5.5 5.4 5.7 6.0 6.0 5.7 5.8 5.9 5.8 6.5 6.4 6.5 6.3 6.3 6.1 6.1 6.2 6.2 6.1 5.9 5.8 5.9 5.8 5.6 5.6 5.6 5.7 5.6 5.7 5.6 5.5 5.9 5.8 6.2 6.0 5.9
5.1 5.0 5.5 5.4 5.5 5.7 5.9 5.8 5.9 5.7 5.5 5.5 6.2 6.3 6.2 6.2 6.1 6.3 6.2 6.1 6.0 5.8 5.7 5.6 5.7 5.6 5.7 5.6 5.3 5.6 5.8 6.0 5.9 5.8 5.8 5.9 5.7 5.7
5.3 5.4 5.4 5.4 5.4 5.6 5.6 5.6 5.7 5.6 5.8 5.6 5.5 5.9 6.1 6.3 6.3 6.3 6.2 6.0 5.9 5.8 5.8 5.8 5.8 5.8 5.4 5.6 5.7 5.6 5.5 5.5 5.5 5.6 5.6 5.7 5.4 5.3
5.2 5.3 5.5 5.4 5.4 5.5 5.6 5.7 5.7 5.7 5.8 5.7 5.8 5.6 5.9 6.2 6.3 6.1 6.0 6.1 5.8 5.7 5.7 5.8 5.5 5.6 5.3 5.0 5.1 5.2 5.3 5.4 5.4 5.4 5.5 5.3 5.4 5.5
5.7 5.7 5.6 5.6 5.6 5.7 5.8 5.9 5.8 5.8 5.9 6.0 6.0 6.3 6.4 6.0 6.2 6.3 6.0 6.0 5.8 6.0 5.7 5.5 5.5 5.2 5.1 5.2 5.2 5.1 5.3 5.3 5.3 5.3 5.5 5.3 5.5 5.4
5.8 5.8 5.6 5.3 5.4 5.4 5.6 5.8 6.1 6.1 6.1 6.3 6.5 6.5 6.0 6.3 6.1 6.1 5.9 5.7 5.7 5.5 5.7 5.6 5.2 5.3 5.1 5.1 5.0 4.9 5.0 5.0 4.8 4.9 5.2 5.3 5.1 5.1
5.9 5.9 5.6 5.7 5.7 5.8 5.7 5.9 6.1 6.1 6.2 6.1 5.9 6.0 6.1 5.8 5.6 5.8 5.7 5.9 5.7 5.7 5.3 5.1 5.1 5.0 5.0 4.8 4.7 4.7 4.8 5.0 5.2 5.2 4.9 4.7 4.6 4.5
6.4 6.1 5.9 5.7 5.5 5.7 6.0 6.0 6.1 6.3 6.2 6.2 6.0 5.8 5.9 6.1 5.8 6.0 5.7 5.6 5.4 5.3 4.7 4.6 4.7 4.9 4.9 4.8 4.5 4.8 4.9 4.9 4.8 4.5 4.2 3.9 3.8 3.6
6.0 6.0 6.0 5.8 5.7 5.7 6.0 6.2 6.0 5.6 5.6 5.7 5.5 6.2 5.9 5.7 5.4 5.3 5.3 4.7 4.3 4.6 4.7 4.8 4.9 5.0 5.1 5.2 5.1 4.9 4.8 4.5 4.1 3.9 3.8 3.7 3.6 3.6
6.3 6.0 6.0 6.2 6.2 6.5 6.4 6.1 5.7 6.0 5.9 5.6 5.3 5.5 5.0 4.3 4.5 4.3 4.4 4.6 4.7 4.5 4.7 4.4 4.7 5.3 5.2 4.9 4.7 4.3 3.9 3.7 3.6 3.4 3.3 3.1 2.9 2.5
6.2 6.1 6.0 5.8 6.2 6.2 6.1 6.2 6.1 5.7 5.6 4.5 4.3 3.8 3.8 4.0 4.3 4.5 4.4 4.3 4.3 4.2 4.5 4.4 4.6 4.6 4.2 4.2 4.2 3.5 3.1 3.1 2.8 2.7 2.6 2.5 2.3 1.8
6.1 6.3 6.3 6.5 6.0 6.3 5.4 3.9 4.0 3.8 4.0 4.3 4.3 4.1 4.1 4.1 4.1 4.4 4.4 4.6 4.7 4.6 4.3 4.2 4.0 3.5 3.4 3.3 3.0 2.8 3.1 2.9 2.5 2.3 2.2 2.0 1.8 1.4
6.0 5.9 6.0 4.9 5.7 4.4 4.3 4.0 4.1 3.9 4.2 3.8 3.8 3.9 4.2 4.2 4.6 4.7 4.5 4.2 4.0 3.8 3.6 3.1 3.1 3.2 2.8 2.6 2.6 2.6 2.2 2.0 1.9 1.7 1.7 1.6 1.4 1.3
5.9 5.7 5.0 4.4 4.0 4.0 3.9 3.8 3.7 3.7 4.1 4.0 4.1 4.6 4.7 4.8 4.4 4.3 3.9 3.5 3.2 3.2 3.0 3.1 2.8 2.6 2.5 2.5 2.5 1.9 1.5 1.5 1.5 1.7 1.7 1.9 2.6 2.6
3.9 4.1 4.3 4.1 4.0 3.9 3.8 4.0 4.4 4.5 4.4 4.4 4.5 4.5 4.3 4.0 3.7 3.4 3.8 3.3 3.0 2.9 2.6 2.5 2.6 2.5 2.2 2.0 1.8 1.8 1.6 1.8 2.3 2.9 3.0 2.7 3.4 3.4
3.8 3.7 3.9 4.0 4.1 4.4 4.5 4.4 4.0 4.2 4.4 4.3 4.0 3.8 3.9 3.6 3.3 3.1 3.0 2.7 2.5 2.3 2.1 2.1 1.9 1.8 2.1 2.2 2.2 1.9 2.0 2.5 3.2 3.7 3.3 3.6 4.1 4.3
4.3 4.4 4.6 4.7 4.6 4.3 4.3 4.2 3.9 3.9 3.9 3.9 4.0 3.7 3.4 3.2 3.0 2.8 2.5 2.2 2.0 1.9 1.7 1.6 1.7 1.6 1.6 2.1 2.6 3.1 2.5 2.8 3.5 4.3 4.5 4.7 5.3 6.0
4.3 4.3 4.3 4.3 4.2 4.2 4.1 4.0 4.0 4.0 4.0 3.8 3.4 3.2 3.1 3.0 2.6 2.4 2.1 2.0 2.0 2.0 1.9 1.8 1.6 1.7 2.3 2.8 3.4 3.8 3.9 3.7 4.3 5.3 5.7 6.5 7.2 7.8
3.8 4.1 4.1 4.1 4.1 4.1 4.0 4.1 4.0 3.6 3.4 3.1 3.0 2.9 2.7 2.4 2.2 2.1 2.1 2.1 2.1 2.0 1.9 1.9 2.2 2.6 3.1 3.4 3.9 4.5 5.1 5.3 5.4 6.4 7.4 7.9 8.1 8.4
4.1 4.1 4.0 4.1 4.0 3.8 3.8 3.6 3.4 3.3 3.1 3.0 2.8 2.5 2.3 2.1 2.2 2.2 2.1 2.2 2.2 2.5 2.7 3.0 3.2 3.4 3.7 4.4 4.9 5.5 6.1 6.3 7.3 7.7 8.2 8.4 8.6 8.6
Wind_Speed
6 6 4 3 4 4 4 3 4 4 4 4 4 8 13 17 23 18 22 25 30 33 32 33 32 32 32 33 33 36 35 32 27 29 29 23 21 22
4 5 5 3 4 4 4 3 3 4 5 5 5 5 7 10 17 18 20 21 23 25 24 26 27 28 28 30 31 29 28 26 23 23 15 15 16 18
6 8 7 6 4 4 4 5 8 5 6 5 4 3 5 6 7 12 12 11 14 13 18 20 21 19 18 20 19 19 18 14 11 7 7 10 14 17
7 6 8 4 7 9 5 8 8 6 7 14 6 4 6 2 1 1 1 2 5 4 6 7 7 5 6 8 8 6 4 3 2 3 5 7 13 14
12 10 10 9 12 10 9 8 6 5 7 8 10 2 1 2 2 2 1 4 8 9 10 9 7 8 9 8 6 4 2 1 1 6 10 11 13 18
13 12 12 12 13 11 9 9 7 6 5 8 8 7 3 2 2 2 1 3 2 7 10 11 11 15 15 14 13 12 10 8 10 13 15 17 20 20
7 9 10 10 8 8 7 9 9 8 7 8 9 2 3 2 3 2 3 3 2 3 2 3 3 5 7 10 11 13 12 12 13 16 16 17 16 16
11 9 7 9 7 8 6 1 4 10 12 8 5 4 4 3 2 2 3 1 2 8 2 2 4 5 9 11 15 11 16 15 14 14 17 18 19 20
13 8 5 3 7 8 12 14 15 15 8 2 3 3 3 4 3 2 3 3 3 3 2 2 3 3 9 11 11 10 13 15 18 20 20 20 20 21
7 9 10 9 8 10 9 11 11 13 11 10 12 11 10 7 7 4 3 5 5 7 9 3 3 3 6 10 6 11 14 19 20 20 20 21 22 23
4 4 7 9 14 17 13 15 13 12 27 32 31 30 30 26 18 6 6 4 3 4 7 3 2 3 2 2 7 15 22 23 21 22 24 24 25 25
7 7 12 13 17 15 13 12 13 9 9 12 11 18 21 22 22 13 5 5 2 2 5 3 3 4 3 1 7 14 15 15 23 25 24 24 24 18
8 8 9 22 23 23 18 11 13 11 12 10 8 8 9 9 11 14 14 6 5 4 8 4 2 3 1 4 3 7 11 15 17 18 18 19 24 25
12 11 14 26 27 24 17 23 20 11 9 8 8 7 6 7 7 11 13 12 10 8 10 10 3 5 4 4 4 5 9 13 13 6 13 20 22 24
12 21 27 28 29 20 23 20 13 8 8 7 7 6 6 6 11 11 12 9 9 10 11 12 6 5 4 4 5 6 9 6 10 7 14 11 10 15
18 13 17 15 19 15 12 12 8 6 9 6 6 6 6 6 6 5 4 4 4 5 9 10 10 8 3 5 7 8 7 6 8 8 8 13 15 16
16 12 11 10 9 8 8 9 6 7 7 6 5 6 5 5 5 5 5 4 4 4 5 6 12 12 8 8 7 7 8 9 9 11 11 12 11 12
10 10 10 9 8 7 7 8 7 8 6 6 5 5 5 5 5 5 5 4 3 4 4 6 7 8 7 3 7 7 8 9 11 11 11 10 14 11
10 8 8 8 7 7 7 6 6 6 7 5 5 5 4 5 5 4 4 4 4 4 3 4 5 5 7 7 6 9 10 12 11 11 9 10 13 14
8 8 7 7 7 7 6 6 5 5 5 5 5 5 3 3 3 4 4 2 2 4 5 4 4 5 6 6 9 12 18 11 10 12 13 11 12 30
8 8 7 7 6 6 6 5 5 4 4 4 3 4 3 3 3 2 3 4 3 4 6 5 6 15 11 10 6 8 10 21 22 13 13 11 11 11
7 7 7 6 6 5 4 5 5 4 4 3 2 3 2 1 2 2 2 2 3 3 5 6 8 7 6 7 10 14 13 13 27 24 25 19 7 4
6 6 6 5 4 4 4 4 4 3 3 3 2 2 2 2 2 2 2 2 4 5 5 6 6 5 6 7 10 11 17 17 12 15 14 19 17 23
Wind_Direction
205 186 189 181 181 169 188 186 178 215 241 236 239 213 219 226 236 234 235 245 245 243 244 243 240 237 237 240 245 250 248 248 248 259 258 256 265 269
187 185 193 192 199 188 188 186 226 212 249 186 236 227 233 241 245 239 239 240 246 247 249 254 249 247 247 248 250 251 250 249 250 254 255 264 265 268
169 190 204 203 206 196 199 213 230 185 240 266 240 229 220 230 253 247 253 254 263 274 275 278 273 271 264 262 263 262 254 249 242 246 263 268 269 272
214 191 221 201 252 249 226 223 218 208 218 258 244 232 219 212 180 201 238 242 273 304 309 307 289 288 287 281 262 244 243 268 294 316 316 296 290 288
219 208 223 211 225 234 231 230 221 219 216 237 265 161 167 192 148 90 90 80 68 63 70 66 66 75 81 76 63 48 28 53 348 319 315 311 310 302
227 223 229 221 223 224 225 227 231 229 222 233 243 252 198 158 110 156 118 19 82 87 75 66 72 66 59 53 42 27 15 357 336 328 317 306 302 292
218 223 229 227 223 231 228 233 227 228 234 238 251 175 183 181 204 157 137 154 83 28 58 50 27 57 56 37 24 3 1 4 6 7 11 14 5 349
216 215 176 156 160 152 164 186 261 239 242 242 225 192 181 164 146 150 129 174 150 38 49 25 9 50 34 36 19 43 55 48 36 20 5 351 341 335
228 211 183 148 136 113 92 78 59 48 33 152 126 73 67 19 26 70 75 68 51 14 33 105 18 49 4 352 11 58 38 25 9 358 349 339 331 326
220 191 188 161 149 139 113 87 69 55 49 75 80 71 70 47 65 77 353 88 96 47 13 29 10 360 324 341 62 28 19 3 356 351 342 332 325 320
93 101 138 141 144 140 123 112 98 91 83 80 80 80 75 60 55 60 41 54 51 68 19 335 14 324 315 353 4 5 359 356 357 348 338 331 326 321
97 88 100 116 111 114 110 109 97 86 82 86 79 71 66 67 57 51 63 72 51 77 17 347 12 23 324 326 350 3 350 353 336 325 322 321 322 318
111 101 100 108 110 103 96 100 104 109 96 82 66 70 66 62 65 47 45 46 49 58 17 2 15 5 293 312 329 315 353 331 316 312 326 336 329 323
106 104 104 98 92 90 90 104 102 98 96 94 81 63 68 68 65 64 50 50 53 65 39 23 3 19 343 303 310 332 320 314 302 316 328 322 311 308
98 103 98 99 97 80 80 68 71 77 82 73 86 87 70 62 57 54 46 49 58 44 32 23 14 351 343 307 292 303 316 313 301 327 307 304 300 299
104 92 85 76 78 78 77 69 65 63 86 91 86 84 79 72 61 52 50 27 42 27 18 11 5 356 314 300 302 304 305 304 312 307 303 302 298 294
108 97 90 87 77 75 83 79 74 70 69 80 77 73 73 75 64 53 43 40 41 357 345 357 353 334 311 307 302 299 303 306 304 308 308 302 299 296
66 84 90 89 87 86 79 79 74 81 81 79 72 75 70 68 70 53 42 35 13 353 340 337 339 345 342 301 281 311 302 299 307 307 308 304 300 299
85 80 82 90 92 87 86 82 77 70 77 73 71 63 59 60 54 44 33 24 359 333 306 333 343 342 330 313 282 303 318 304 307 304 304 296 292 296
79 80 83 83 82 88 85 83 74 71 74 74 67 61 54 62 44 32 20 339 320 324 326 328 332 331 322 312 307 298 300 301 305 300 300 293 287 291
75 76 68 72 75 75 79 83 86 75 74 70 51 60 33 59 35 17 360 357 323 328 321 321 319 324 313 303 306 298 303 308 301 301 302 297 306 308
73 74 69 71 79 85 77 87 87 80 75 69 52 54 25 56 43 0 342 303 317 301 302 317 330 327 318 317 313 310 312 311 315 307 301 282 272 290
67 74 67 66 66 61 78 76 82 76 77 81 66 52 33 20 325 279 267 305 330 332 329 323 325 317 325 321 313 308 310 313 322 330 324 316 276 247